Stations météo

Publicité
Charleroi/Gosselies, Belgique (6449): Température de l'air & dewpoint: 11.01.2018 19:00:00 - 17.01.2018 19:00:00 (CET)Charleroi/Gosselies, Belgique (6449): Vitesse du vent & gusts: 11.01.2018 19:00:00 - 17.01.2018 19:00:00 (CET)Charleroi/Gosselies, Belgique (6449): Direction du vent: 11.01.2018 19:00:00 - 17.01.2018 19:00:00 (CET)Charleroi/Gosselies, Belgique (6449): reduced air pressure: 11.01.2018 19:00:00 - 17.01.2018 19:00:00 (CET)Charleroi/Gosselies, Belgique (6449): visibility: 11.01.2018 19:00:00 - 17.01.2018 19:00:00 (CET)
Date & Time tt [°C] td [°C] ff [km/h] ff [knt] fx [km/h] fx [knt] dd ppp [hPa] vv [km]
17.01.2018 19:00:00 - - - - - - - - -
17.01.2018 18:00:00 4,8 -0,9 18 10 43 23 WSW 1010,7 10
17.01.2018 17:00:00 4,6 -1,7 28 15 50 27 WSW 1010,0 10
17.01.2018 16:00:00 5,3 -1,7 24 13 - - W 1009,0 10
17.01.2018 15:00:00 5,4 -1,4 22 12 50 27 W 1008,2 10
17.01.2018 14:00:00 4,8 -1,7 28 15 54 29 W 1007,6 10
17.01.2018 13:00:00 4,1 -1,6 29 16 - - W 1007,1 10
17.01.2018 12:00:00 3,4 -1,2 26 14 50 27 W 1006,5 10
17.01.2018 11:00:00 2,6 -1,9 31 17 47 25 WSW 1005,6 10
17.01.2018 10:00:00 2,0 -2,0 28 15 - - WSW - 10
17.01.2018 09:00:00 2,0 -2,1 22 12 40 21 WSW 1003,2 10
17.01.2018 08:00:00 2,0 -2,4 22 12 40 21 W 1001,8 10
17.01.2018 07:00:00 1,8 -2,4 18 10 - - W 1000,6 10
17.01.2018 06:00:00 2,1 -1,8 22 12 47 25 W 999,5 8
17.01.2018 05:00:00 2,1 -0,9 18 10 43 23 W 998,5 8
17.01.2018 04:00:00 3,0 0,5 18 10 - - W 997,2 8
17.01.2018 03:00:00 2,9 0,7 26 14 36 19 WSW 996,7 10
17.01.2018 02:00:00 2,7 0,2 26 14 47 25 WSW 996,4 10
17.01.2018 01:00:00 3,0 1,0 29 16 - - WSW 996,2 10
17.01.2018 00:00:00 2,1 1,0 15 8 29 16 WSW 996,1 4,0
16.01.2018 23:00:00 3,5 1,2 13 7 47 25 W 996,2 10
16.01.2018 22:00:00 4,1 0,7 31 17 - - SW 996,4 10
16.01.2018 21:00:00 4,2 0,9 22 12 43 23 SW 996,9 10
16.01.2018 20:00:00 4,4 0,8 24 13 36 19 WSW 997,3 10
16.01.2018 19:00:00 4,4 1,0 22 12 - - WSW 997,2 10
16.01.2018 18:00:00 5,1 2,1 28 15 47 25 SW 997,5 10
16.01.2018 17:00:00 5,6 1,4 29 16 43 23 WSW 997,5 15
16.01.2018 16:00:00 5,8 0,9 25 14 - - WSW 997,5 15
16.01.2018 15:00:00 5,9 1,0 40 21 50 27 WSW 997,1 15
16.01.2018 14:00:00 6,6 -0,1 36 19 50 27 WSW 996,9 15
16.01.2018 13:00:00 6,7 1,2 25 14 - - W 997,6 15
16.01.2018 12:00:00 6,2 2,0 29 16 58 31 W 997,6 15
16.01.2018 11:00:00 5,8 3,1 32 18 54 29 WSW 996,6 15
16.01.2018 10:00:00 5,4 2,2 36 19 - - WSW 996,2 15
16.01.2018 09:00:00 6,0 2,8 29 16 47 25 WSW 995,3 15
16.01.2018 08:00:00 5,7 3,4 29 16 50 27 WSW 994,9 10
16.01.2018 07:00:00 5,5 3,0 32 18 - - WSW 994,2 15
16.01.2018 06:00:00 6,2 3,9 36 19 47 25 WSW 994,9 20
16.01.2018 05:00:00 5,9 4,0 24 13 47 25 SW 995,3 10
16.01.2018 04:00:00 6,1 3,9 36 19 - - WSW 996,0 15
16.01.2018 03:00:00 6,0 4,3 28 15 43 23 SW 996,1 10
16.01.2018 02:00:00 5,8 3,9 28 15 50 27 SW 996,8 10
16.01.2018 01:00:00 5,6 4,1 36 19 - - WSW 997,9 7
16.01.2018 00:00:00 6,7 4,4 29 16 50 27 WSW 997,5 10
15.01.2018 23:00:00 7,3 5,1 32 18 54 29 WSW 996,4 15
15.01.2018 22:00:00 7,5 6,0 29 16 - - WSW 995,9 10
15.01.2018 21:00:00 7,6 6,2 34 18 47 25 SW 995,4 10
15.01.2018 20:00:00 6,9 6,1 29 16 50 27 SSW 994,9 4,0
15.01.2018 19:00:00 5,9 5,0 32 18 - - SSW 995,8 15
15.01.2018 18:00:00 5,1 4,0 31 17 72 39 SSW 997,3 6
15.01.2018 17:00:00 4,4 3,6 40 21 72 39 S 998,2 3,0
15.01.2018 16:00:00 5,1 3,7 40 21 - - SSW 999,8 12
15.01.2018 15:00:00 5,4 3,9 40 21 61 33 S 1001,6 6
15.01.2018 14:00:00 5,4 3,7 29 16 61 33 SSW 1003,9 4,5
15.01.2018 13:00:00 5,7 3,2 35 19 - - S 1005,2 10
15.01.2018 12:00:00 5,7 2,9 35 19 58 31 SSW 1008,4 10
15.01.2018 11:00:00 5,4 3,0 32 18 50 27 S 1009,6 20
15.01.2018 10:00:00 5,0 3,2 28 15 - - S 1011,1 10
15.01.2018 09:00:00 4,6 3,1 31 17 47 25 SSW 1012,1 10
15.01.2018 08:00:00 3,8 2,7 22 12 40 21 SSW 1012,9 7
15.01.2018 07:00:00 3,0 2,0 22 12 - - SSW 1014,1 6
15.01.2018 06:00:00 2,9 2,0 25 14 40 21 SSW 1014,9 4,5
15.01.2018 05:00:00 3,7 2,2 26 14 40 21 SSW 1015,2 8
15.01.2018 04:00:00 4,1 2,4 29 16 - - SSW 1015,8 9
15.01.2018 03:00:00 3,8 1,3 18 10 29 16 S 1016,6 10
15.01.2018 02:00:00 3,8 1,0 18 10 29 16 S 1017,1 10
15.01.2018 01:00:00 3,7 0,7 18 10 - - S 1018,0 12
15.01.2018 00:00:00 3,8 0,6 18 10 25 14 S 1018,6 12
14.01.2018 23:00:00 3,8 0,5 14 8 25 14 S 1018,8 12
14.01.2018 22:00:00 3,9 0,3 13 7 - - S 1018,9 10
14.01.2018 21:00:00 4,0 0,4 15 8 29 16 S 1018,8 10
14.01.2018 20:00:00 4,1 0,5 14 8 22 12 SSE 1018,8 15
14.01.2018 19:00:00 4,4 0,4 11 6 - - S 1018,9 10
14.01.2018 18:00:00 5,0 0,8 7 4 14 8 S 1018,7 15
14.01.2018 17:00:00 5,3 1,0 11 6 22 12 SSE 1018,6 10
14.01.2018 16:00:00 6,1 0,7 14 8 - - SSE 1018,5 15
14.01.2018 15:00:00 6,4 1,0 14 8 25 14 SSE 1018,2 15
14.01.2018 14:00:00 6,0 0,8 15 8 29 16 SSE 1018,6 10
14.01.2018 13:00:00 5,3 0,5 13 7 - - SSE 1019,0 10
14.01.2018 12:00:00 4,4 0,9 16 9 25 14 SSE 1019,2 10
14.01.2018 11:00:00 2,9 0,2 13 7 18 10 SE 1019,5 9
14.01.2018 10:00:00 1,5 -0,6 8 4 - - ESE 1019,6 7
14.01.2018 09:00:00 0,4 -1,0 7 4 14 8 E 1019,3 6
14.01.2018 08:00:00 0,5 -0,8 11 6 18 10 E 1019,2 6
14.01.2018 07:00:00 0,6 -0,7 13 7 - - E 1019,1 6
14.01.2018 06:00:00 0,8 -0,7 11 6 18 10 E 1018,8 7
14.01.2018 05:00:00 1,0 -0,6 11 6 14 8 E 1019,0 7
14.01.2018 04:00:00 -0,1 -1,2 14 8 - - E 1019,4 7
14.01.2018 03:00:00 0,1 -1,1 11 6 14 8 ENE 1019,4 7
14.01.2018 02:00:00 0,3 -0,7 14 8 14 8 ENE 1019,6 7
14.01.2018 01:00:00 1,0 -0,1 11 6 - - ENE 1020,0 8
14.01.2018 00:00:00 1,9 0,4 11 6 14 8 ENE 1020,3 8
13.01.2018 23:00:00 2,5 0,9 13 7 14 8 NE 1020,4 10
13.01.2018 22:00:00 3,1 0,9 11 6 - - ENE 1020,7 10
13.01.2018 21:00:00 3,3 1,0 7 4 14 8 ENE 1020,9 10
13.01.2018 20:00:00 3,8 -0,2 11 6 22 12 E 1021,3 10
13.01.2018 19:00:00 3,6 -0,1 11 6 - - ESE 1021,6 10
13.01.2018 18:00:00 4,0 0,0 16 9 - - ESE - 10
13.01.2018 17:00:00 4,0 1,0 13 7 - - ESE - 10
13.01.2018 16:00:00 4,2 0,3 13 7 - - SE 1021,9 10
13.01.2018 15:00:00 4,1 0,6 13 7 25 14 SE 1022,4 10
13.01.2018 14:00:00 3,7 1,0 14 8 29 16 ESE 1023,1 7
13.01.2018 13:00:00 3,7 1,1 16 9 - - SE 1023,7 7
13.01.2018 12:00:00 3,8 1,8 7 4 14 8 ESE 1024,7 6
13.01.2018 11:00:00 3,3 1,8 8 4 14 8 SE 1024,7 4,5
13.01.2018 10:00:00 2,4 1,8 5 3 - - ESE 1024,8 2,5
13.01.2018 09:00:00 2,3 2,0 7 4 11 6 SE 1024,7 1,5
13.01.2018 08:00:00 2,3 2,0 7 4 14 8 SE 1024,6 1,7
13.01.2018 07:00:00 2,4 2,1 8 4 - - SSE 1024,7 2,2
13.01.2018 06:00:00 2,3 1,9 11 6 22 12 SSE 1024,9 1,8
13.01.2018 05:00:00 2,7 2,4 9 5 14 8 SE 1025,3 1,2
13.01.2018 04:00:00 2,9 2,8 9 5 - - SE 1025,6 0,8
13.01.2018 03:00:00 2,6 2,4 9 5 14 8 SE 1025,7 0,3
13.01.2018 02:00:00 2,4 2,3 11 6 18 10 SE 1026,1 0,3
13.01.2018 01:00:00 2,6 2,4 7 4 - - SSE 1026,5 0,7
13.01.2018 00:00:00 3,3 2,8 8 4 18 10 ESE 1026,8 1,8
12.01.2018 23:00:00 3,9 3,2 7 4 11 6 ESE 1026,9 2,8
12.01.2018 22:00:00 4,5 3,3 4 2 - - SE 1027,0 3,2
12.01.2018 21:00:00 4,6 3,6 4 2 11 6 E 1026,9 3,5
12.01.2018 20:00:00 4,9 3,7 4 2 14 8 E 1026,9 4,0
12.01.2018 19:00:00 5,1 3,6 9 5 - - E 1026,6 3,9
12.01.2018 18:00:00 5,6 4,2 8 4 14 8 ENE 1026,6 3,9
12.01.2018 17:00:00 5,7 4,6 11 6 11 6 ENE 1026,3 4,2
12.01.2018 16:00:00 6,0 4,6 7 4 - - NE 1026,5 4,7
12.01.2018 15:00:00 6,4 4,7 4 2 7 4 - 1026,3 4,7
12.01.2018 14:00:00 6,2 4,6 4 2 7 4 - 1026,3 4,5
12.01.2018 13:00:00 6,0 4,6 4 2 - - ESE 1026,7 3,9
12.01.2018 12:00:00 5,5 4,3 4 2 11 6 NNE 1027,2 3,2
12.01.2018 11:00:00 5,2 4,3 7 4 14 8 NNE 1027,3 2,8
12.01.2018 10:00:00 5,1 4,2 7 4 - - N 1026,9 2,5
12.01.2018 09:00:00 5,2 4,3 7 4 18 10 N 1026,6 2,5
12.01.2018 08:00:00 5,2 4,3 11 6 14 8 N 1026,2 2,2
12.01.2018 07:00:00 5,1 4,4 7 4 - - N 1025,7 1,2
12.01.2018 06:00:00 5,0 4,5 7 4 14 8 NNE 1025,4 0,6
12.01.2018 05:00:00 5,3 5,2 9 5 14 8 NNE 1025,2 0,5
12.01.2018 04:00:00 5,1 4,6 2 1 - - - 1025,0 1,4
12.01.2018 03:00:00 5,2 4,7 4 2 11 6 N 1024,9 1,6
12.01.2018 02:00:00 5,7 5,0 7 4 11 6 N 1024,6 1,6
12.01.2018 01:00:00 5,9 5,2 7 4 - - NNW 1024,3 2,2
12.01.2018 00:00:00 5,7 5,0 4 2 14 8 NNW 1023,9 2,2
11.01.2018 23:00:00 5,7 5,0 7 4 14 8 N 1023,5 1,8
11.01.2018 22:00:00 5,9 5,2 11 6 - - N 1023,1 2,2
11.01.2018 21:00:00 5,9 5,2 7 4 11 6 N 1022,4 3,5
11.01.2018 20:00:00 5,8 4,9 7 4 11 6 NNW 1021,6 5
11.01.2018 19:00:00 6,1 5,1 7 4 - - N 1021,0 5

tt = Température de l'air
td = dewpoint
ff = Vitesse du vent
fx = gusts
dd = Direction du vent
ppp = reduced air pressure
vv = visibility

stations d'obs. à proximité